Find Starlink 32647

NORAD ID: 62200 Int'l Des: 2024-229 Owner: SPXS Country: US Constellation: starlink operational
LEOCIRCULAR

現在のビュー

3D地球を読み込み中...

About Starlink 32647

Starlink 32647 (NORAD 62200) is a starlink constellation satellite (v2 mini) launched Dec 4, 2024 by SPXS of US. It operates in LEO, CIRCULAR orbit with a mass of 730.00 kg.

Starlink 32647について

説明を読み込み中...

次回通過

Passes for default location (London). Set your location on the main map for personalized predictions.

高度履歴

Loading altitude history...

軌道要素

1 62200U 24229J 26166.46449190 .00019388 00000-0 71184-3 0 9990
2 62200 43.0052 78.6341 0001494 262.8908 97.1774 15.27597485 85515
Epoch: Jun 15, 2026 • Age: 21 hours

現在のステータス

高度 482.8 km
速度 7.63 km/s
衛星直下点 20.07°N, 76.95°E
打ち上げ日 Dec 4, 2024
運用期間 1.5 years
タイプ internet

技術仕様

分類 Payload
質量 730.00 kg
乾燥質量 700.00 kg
総質量 730.00 kg
長さ 0.30 m
直径 4.10 m
スパン 29.00 m
形状 Box + pan
製造者 SPXS
バスタイプ Starlink V2M
フェーズステータス In Orbit
所有者/国 SPXS/US

Most Searched